Location: Makanda
(37.6176°N, 89.2090°W)
Time: 10:28:44
(UTC+00:00)

CZ-2C R/B - Pass Details

Date: 23 September 2019
Orbit: 705 x 907 km, 98.1° (Epoch: 15 October)

Event Time Altitude Azimuth Distance (km) Brightness Sun altitude
Exits shadow 02:40:10 49° 331° (NNW) 1,065 3.9 -32.4°
Drops below altitude 10° 02:44:13 10° 344° (NNW) 2,489 6.1 -33.1°
Sets 02:46:40 0° 346° (NNW) 3,456 6.9 -33.5°
